Time,TemperatureF,DewpointF,PressureIn,WindDirection,WindDirectionDegrees,WindSpeedMPH,WindSpeedGustMPH,Humidity,HourlyPrecipIn,Conditions,Clouds,dailyrainin,SoftwareType,DateUTC
2013-07-13 00:02:00,59.0,58.0,30.14,SW,214,0.0,0.0,95,0.00,,,0.00,,2013-07-13 04:02:00,
2013-07-13 00:22:00,59.0,58.0,30.14,SW,214,0.0,0.0,96,0.00,,,0.00,,2013-07-13 04:22:00,
2013-07-13 00:32:00,59.0,58.0,30.14,SW,214,0.0,1.0,96,0.00,,,0.00,,2013-07-13 04:32:00,
2013-07-13 00:43:00,59.0,58.0,30.14,SW,214,0.0,2.0,96,0.00,,,0.00,,2013-07-13 04:43:00,
2013-07-13 00:52:00,59.0,58.0,30.14,SW,214,0.0,2.0,96,0.00,,,0.00,,2013-07-13 04:52:00,
2013-07-13 01:01:00,59.0,58.0,30.15,SW,214,0.0,1.0,96,0.00,,,0.00,,2013-07-13 05:01:00,
2013-07-13 01:11:00,59.0,58.0,30.15,SW,214,0.0,1.0,96,0.00,,,0.00,,2013-07-13 05:11:00,
2013-07-13 01:22:00,59.0,58.0,30.14,SW,214,0.0,0.0,96,0.00,,,0.00,,2013-07-13 05:22:00,
2013-07-13 01:42:00,59.0,58.0,30.15,SW,214,0.0,0.0,97,0.00,,,0.00,,2013-07-13 05:42:00,
2013-07-13 01:52:00,59.0,58.0,30.15,SW,214,0.0,0.0,97,0.00,,,0.00,,2013-07-13 05:52:00,
2013-07-13 02:02:00,59.0,58.0,30.15,SW,214,0.0,0.0,97,0.00,,,0.00,,2013-07-13 06:02:00,
2013-07-13 02:11:00,59.0,58.0,30.15,SW,214,0.0,0.0,97,0.00,,,0.00,,2013-07-13 06:11:00,
2013-07-13 02:32:00,58.0,57.0,30.16,SW,214,0.0,0.0,97,0.00,,,0.00,,2013-07-13 06:32:00,
2013-07-13 02:52:00,58.0,57.0,30.16,SW,214,0.0,0.0,97,0.00,,,0.00,,2013-07-13 06:52:00,
2013-07-13 03:02:00,58.0,57.0,30.16,SW,214,0.0,2.0,97,0.00,,,0.00,,2013-07-13 07:02:00,
2013-07-13 03:11:00,58.0,57.0,30.16,SW,214,0.0,2.0,97,0.00,,,0.00,,2013-07-13 07:11:00,
2013-07-13 03:22:00,57.0,56.0,30.17,SW,214,0.0,0.0,97,0.00,,,0.00,,2013-07-13 07:22:00,
2013-07-13 03:33:00,57.0,56.0,30.17,SW,214,0.0,0.0,98,0.00,,,0.00,,2013-07-13 07:33:00,
2013-07-13 03:44:00,57.0,56.0,30.18,SW,214,0.0,0.0,98,0.00,,,0.00,,2013-07-13 07:44:00,
2013-07-13 03:53:00,57.0,56.0,30.18,SW,214,0.0,0.0,98,0.00,,,0.00,,2013-07-13 07:53:00,
2013-07-13 04:02:00,57.0,56.0,30.18,SW,214,1.0,3.0,97,0.00,,,0.00,,2013-07-13 08:02:00,
2013-07-13 04:22:00,57.0,56.0,30.19,SW,214,0.0,1.0,98,0.00,,,0.00,,2013-07-13 08:22:00,
2013-07-13 04:33:00,57.0,56.0,30.19,SW,214,0.0,0.0,98,0.00,,,0.00,,2013-07-13 08:33:00,
2013-07-13 04:43:00,56.0,55.0,30.19,SW,214,0.0,0.0,98,0.00,,,0.00,,2013-07-13 08:43:00,
2013-07-13 04:52:00,56.0,55.0,30.19,SW,214,0.0,0.0,98,0.00,,,0.00,,2013-07-13 08:52:00,
2013-07-13 05:02:00,56.0,55.0,30.19,SW,214,0.0,0.0,98,0.00,,,0.00,,2013-07-13 09:02:00,
2013-07-13 05:22:00,56.0,55.0,30.19,SW,214,0.0,0.0,98,0.00,,,0.00,,2013-07-13 09:22:00,
2013-07-13 05:33:00,56.0,55.0,30.20,SW,214,0.0,0.0,98,0.00,,,0.00,,2013-07-13 09:33:00,
2013-07-13 05:43:00,56.0,55.0,30.20,SW,214,0.0,0.0,98,0.00,,,0.00,,2013-07-13 09:43:00,
2013-07-13 05:53:00,56.0,55.0,30.20,SW,214,0.0,0.0,98,0.00,,,0.00,,2013-07-13 09:53:00,
2013-07-13 06:01:00,57.0,56.0,30.20,SW,214,0.0,0.0,98,0.00,,,0.00,,2013-07-13 10:01:00,
2013-07-13 06:22:00,57.0,56.0,30.19,SW,214,0.0,0.0,98,0.00,,,0.00,,2013-07-13 10:22:00,
2013-07-13 06:32:00,58.0,57.0,30.19,SW,214,0.0,0.0,98,0.00,,,0.00,,2013-07-13 10:32:00,
2013-07-13 06:43:00,60.0,59.0,30.20,WNW,293,1.0,2.0,98,0.00,,,0.00,,2013-07-13 10:43:00,
2013-07-13 07:02:00,60.0,59.0,30.20,NNW,340,2.0,3.0,97,0.00,,,0.00,,2013-07-13 11:02:00,
2013-07-13 07:11:00,60.0,59.0,30.20,NNW,340,2.0,3.0,97,0.00,,,0.00,,2013-07-13 11:11:00,
2013-07-13 07:22:00,61.0,60.0,30.20,NNW,340,0.0,2.0,97,0.00,,,0.00,,2013-07-13 11:22:00,
2013-07-13 07:32:00,61.0,60.0,30.20,NNW,340,0.0,2.0,97,0.00,,,0.00,,2013-07-13 11:32:00,
2013-07-13 07:52:00,63.0,62.0,30.21,NNW,329,1.0,4.0,95,0.00,,,0.00,,2013-07-13 11:52:00,
2013-07-13 08:02:00,65.0,63.0,30.21,NNW,330,0.0,2.0,93,0.00,,,0.00,,2013-07-13 12:02:00,
2013-07-13 08:12:00,65.0,63.0,30.21,NNW,330,0.0,2.0,93,0.00,,,0.00,,2013-07-13 12:12:00,
2013-07-13 08:32:00,65.0,62.0,30.22,NNW,330,0.0,2.0,91,0.00,,,0.00,,2013-07-13 12:32:00,
2013-07-13 08:52:00,66.0,62.0,30.22,NNW,330,0.0,1.0,87,0.00,,,0.00,,2013-07-13 12:52:00,
2013-07-13 09:01:00,66.0,62.0,30.22,NNW,330,0.0,1.0,87,0.00,,,0.00,,2013-07-13 13:01:00,
2013-07-13 09:12:00,67.0,62.0,30.23,NNW,330,0.0,2.0,84,0.00,,,0.00,,2013-07-13 13:12:00,
2013-07-13 09:22:00,69.0,64.0,30.23,NNW,330,2.0,3.0,83,0.00,,,0.00,,2013-07-13 13:22:00,
2013-07-13 09:43:00,71.0,65.0,30.23,NNW,330,1.0,3.0,80,0.00,,,0.00,,2013-07-13 13:43:00,
2013-07-13 09:53:00,71.0,65.0,30.23,NNW,330,1.0,3.0,80,0.00,,,0.00,,2013-07-13 13:53:00,
2013-07-13 10:11:00,73.0,64.0,30.24,NNW,330,0.0,2.0,74,0.00,,,0.00,,2013-07-13 14:11:00,
2013-07-13 10:22:00,74.0,64.0,30.24,NNE,12,1.0,3.0,72,0.00,,,0.00,,2013-07-13 14:22:00,
2013-07-13 10:32:00,74.0,63.0,30.24,NE,46,2.0,4.0,69,0.00,,,0.00,,2013-07-13 14:32:00,
2013-07-13 10:53:00,74.0,64.0,30.23,NE,44,2.0,5.0,71,0.00,,,0.00,,2013-07-13 14:53:00,
2013-07-13 11:02:00,74.0,58.0,30.23,NE,53,2.0,5.0,58,0.00,,,0.00,,2013-07-13 15:02:00,
2013-07-13 11:22:00,75.0,62.0,30.23,NE,46,2.0,7.0,63,0.00,,,0.00,,2013-07-13 15:22:00,
2013-07-13 11:33:00,76.0,65.0,30.24,NE,40,3.0,6.0,70,0.00,,,0.00,,2013-07-13 15:33:00,
2013-07-13 11:43:00,76.0,63.0,30.24,NE,42,2.0,5.0,65,0.00,,,0.00,,2013-07-13 15:43:00,
2013-07-13 11:53:00,76.0,63.0,30.24,NE,42,2.0,5.0,65,0.00,,,0.00,,2013-07-13 15:53:00,
2013-07-13 12:22:00,78.0,65.0,30.23,NE,36,3.0,7.0,64,0.00,,,0.00,,2013-07-13 16:22:00,
2013-07-13 12:33:00,78.0,65.0,30.23,NE,51,2.0,5.0,65,0.00,,,0.00,,2013-07-13 16:33:00,
2013-07-13 12:43:00,78.0,64.0,30.22,NNE,31,1.0,5.0,62,0.00,,,0.00,,2013-07-13 16:43:00,
2013-07-13 12:53:00,78.0,64.0,30.22,NNE,31,1.0,5.0,62,0.00,,,0.00,,2013-07-13 16:53:00,
2013-07-13 13:01:00,79.0,64.0,30.22,NE,36,2.0,8.0,60,0.00,,,0.00,,2013-07-13 17:01:00,
2013-07-13 13:12:00,79.0,61.0,30.22,ENE,57,1.0,5.0,55,0.00,,,0.00,,2013-07-13 17:12:00,
2013-07-13 13:22:00,79.0,61.0,30.22,ENE,57,1.0,5.0,55,0.00,,,0.00,,2013-07-13 17:22:00,
2013-07-13 13:33:00,78.0,62.0,30.22,NNE,22,2.0,5.0,59,0.00,,,0.00,,2013-07-13 17:33:00,
2013-07-13 13:43:00,78.0,62.0,30.22,SSW,194,1.0,5.0,58,0.00,,,0.00,,2013-07-13 17:43:00,
2013-07-13 13:52:00,78.0,62.0,30.22,SSW,194,1.0,5.0,58,0.00,,,0.00,,2013-07-13 17:52:00,
2013-07-13 14:02:00,78.0,63.0,30.22,North,11,1.0,7.0,61,0.00,,,0.00,,2013-07-13 18:02:00,
2013-07-13 14:22:00,78.0,64.0,30.22,NE,50,3.0,6.0,62,0.00,,,0.00,,2013-07-13 18:22:00,
2013-07-13 14:32:00,78.0,64.0,30.21,NE,34,2.0,6.0,62,0.00,,,0.00,,2013-07-13 18:32:00,
2013-07-13 14:44:00,78.0,64.0,30.21,NNE,15,2.0,6.0,62,0.00,,,0.00,,2013-07-13 18:44:00,
2013-07-13 14:53:00,78.0,64.0,30.21,NNE,15,2.0,6.0,62,0.00,,,0.00,,2013-07-13 18:53:00,
2013-07-13 15:02:00,78.0,64.0,30.21,NNW,342,1.0,6.0,62,0.00,,,0.00,,2013-07-13 19:02:00,
2013-07-13 15:11:00,78.0,62.0,30.21,ENE,61,2.0,5.0,59,0.00,,,0.00,,2013-07-13 19:11:00,
2013-07-13 15:22:00,78.0,62.0,30.21,ENE,61,2.0,5.0,59,0.00,,,0.00,,2013-07-13 19:22:00,
2013-07-13 15:32:00,77.0,62.0,30.21,NE,53,2.0,5.0,60,0.00,,,0.00,,2013-07-13 19:32:00,
2013-07-13 15:44:00,77.0,62.0,30.21,WNW,288,1.0,6.0,60,0.00,,,0.00,,2013-07-13 19:44:00,
2013-07-13 15:52:00,77.0,62.0,30.21,WNW,288,1.0,6.0,60,0.00,,,0.00,,2013-07-13 19:52:00,
2013-07-13 16:01:00,77.0,63.0,30.21,East,80,1.0,5.0,61,0.00,,,0.00,,2013-07-13 20:01:00,
2013-07-13 16:11:00,77.0,63.0,30.20,SSE,164,1.0,5.0,61,0.00,,,0.00,,2013-07-13 20:11:00,
2013-07-13 16:22:00,77.0,63.0,30.20,SSE,164,1.0,5.0,61,0.00,,,0.00,,2013-07-13 20:22:00,
2013-07-13 16:33:00,77.0,63.0,30.20,SSE,164,1.0,5.0,61,0.00,,,0.00,,2013-07-13 20:33:00,
2013-07-13 16:43:00,76.0,63.0,30.20,North,5,1.0,5.0,65,0.00,,,0.00,,2013-07-13 20:43:00,
2013-07-13 16:52:00,76.0,63.0,30.20,North,5,1.0,5.0,65,0.00,,,0.00,,2013-07-13 20:52:00,
2013-07-13 17:02:00,77.0,61.0,30.20,WSW,241,1.0,4.0,58,0.00,,,0.00,,2013-07-13 21:02:00,
2013-07-13 17:12:00,77.0,61.0,30.20,WSW,241,1.0,4.0,58,0.00,,,0.00,,2013-07-13 21:12:00,
2013-07-13 17:22:00,76.0,61.0,30.20,NE,34,1.0,4.0,60,0.00,,,0.00,,2013-07-13 21:22:00,
2013-07-13 17:32:00,78.0,61.0,30.20,ENE,65,0.0,5.0,55,0.00,,,0.00,,2013-07-13 21:32:00,
2013-07-13 17:43:00,78.0,62.0,30.19,West,267,1.0,4.0,57,0.00,,,0.00,,2013-07-13 21:43:00,
2013-07-13 17:53:00,78.0,62.0,30.19,West,267,1.0,4.0,57,0.00,,,0.00,,2013-07-13 21:53:00,
2013-07-13 18:01:00,74.0,61.0,30.20,NE,37,1.0,4.0,65,0.00,,,0.00,,2013-07-13 22:01:00,
2013-07-13 18:12:00,73.0,61.0,30.20,ENE,76,0.0,3.0,66,0.00,,,0.00,,2013-07-13 22:12:00,
2013-07-13 18:22:00,73.0,61.0,30.20,ENE,76,0.0,3.0,66,0.00,,,0.00,,2013-07-13 22:22:00,
2013-07-13 18:32:00,72.0,60.0,30.20,ENE,60,0.0,3.0,67,0.00,,,0.00,,2013-07-13 22:32:00,
2013-07-13 18:43:00,72.0,61.0,30.20,West,279,0.0,1.0,69,0.00,,,0.00,,2013-07-13 22:43:00,
2013-07-13 19:02:00,72.0,61.0,30.20,West,268,0.0,2.0,69,0.00,,,0.00,,2013-07-13 23:02:00,
2013-07-13 19:11:00,72.0,62.0,30.20,ENE,74,0.0,3.0,70,0.00,,,0.00,,2013-07-13 23:11:00,
2013-07-13 19:32:00,70.0,60.0,30.21,East,94,0.0,2.0,70,0.00,,,0.00,,2013-07-13 23:32:00,
2013-07-13 21:32:00,63.0,59.0,30.21,ESE,112,0.0,1.0,86,0.00,,,0.00,,2013-07-14 01:32:00,
2013-07-13 21:43:00,63.0,59.0,30.22,ESE,112,0.0,0.0,86,0.00,,,0.00,,2013-07-14 01:43:00,
2013-07-13 21:52:00,63.0,59.0,30.22,ESE,112,0.0,0.0,86,0.00,,,0.00,,2013-07-14 01:52:00,
2013-07-13 22:02:00,62.0,58.0,30.22,ESE,112,0.0,0.0,87,0.00,,,0.00,,2013-07-14 02:02:00,
2013-07-13 22:11:00,62.0,58.0,30.22,North,9,0.0,1.0,88,0.00,,,0.00,,2013-07-14 02:11:00,
2013-07-13 22:22:00,62.0,58.0,30.22,North,9,0.0,1.0,88,0.00,,,0.00,,2013-07-14 02:22:00,
2013-07-13 22:32:00,62.0,59.0,30.22,NNE,17,0.0,1.0,89,0.00,,,0.00,,2013-07-14 02:32:00,
2013-07-13 22:43:00,61.0,58.0,30.21,SW,224,0.0,3.0,90,0.00,,,0.00,,2013-07-14 02:43:00,
2013-07-13 22:53:00,61.0,58.0,30.21,SW,224,0.0,3.0,90,0.00,,,0.00,,2013-07-14 02:53:00,
2013-07-13 23:02:00,61.0,58.0,30.21,SW,224,0.0,0.0,90,0.00,,,0.00,,2013-07-14 03:02:00,
2013-07-13 23:11:00,61.0,58.0,30.21,SW,224,0.0,0.0,90,0.00,,,0.00,,2013-07-14 03:11:00,
2013-07-13 23:22:00,61.0,58.0,30.21,SW,224,0.0,0.0,90,0.00,,,0.00,,2013-07-14 03:22:00,
2013-07-13 23:32:00,60.0,57.0,30.21,SW,224,0.0,0.0,91,0.00,,,0.00,,2013-07-14 03:32:00,
2013-07-13 23:43:00,60.0,57.0,30.21,SW,224,0.0,0.0,91,0.00,,,0.00,,2013-07-14 03:43:00,
2013-07-13 23:53:00,60.0,57.0,30.21,SW,224,0.0,0.0,91,0.00,,,0.00,,2013-07-14 03:53:00,